Location: Neuvy Saint Sepulchre
(46.5953°N, 1.8122°E)
Time: 03:18:20
(UTC+02:00)

ISS - Pass Details

Date: 30 June 2021
Orbit: 417 x 422 km, 51.6° (Epoch: 16 June)

Event Time Altitude Azimuth Distance (km) Brightness Sun altitude
Exits shadow 05:02:27 12° 222° (SW) 1,375 -1.8 -8.6°
Maximum altitude 05:05:25 51° 147° (SSE) 531 -3.3 -8.2°
Drops below altitude 10° 05:08:42 10° 70° (ENE) 1,501 0.2 -7.8°
Sets 05:10:50 0° 65° (ENE) 2,367 1.6 -7.6°
